FENGYUN 1C DEB, 30390

Orbit data source: Space-Track

FENGYUN 1C DEB, 30390 is space debris in SSO originally from a launch on Mon, 10 May 1999 UTC launched from the Taiyaun Space Center, China (TSC). Fengyun 1C debris stems from the Chinese weather satellite Fengyun-1C, which was intentionally destroyed by a Chinese anti-satellite missile in 2007. This event dramatically increased the amount of space debris, with thousands of trackable fragments posing hazards to satellites and human spaceflight. The Fengyun 1C debris cloud has become a focal point in discussions about space sustainability and the need for international regulations to prevent the creation of new debris.

Loading next visibility...
Identifier
30390, 1999-025ADD
Orbit
SSO
Country
Flag of CNCN / PRC
Related business
Manufacturer
Unknown
Mission
Spacecraft
Bus & Motor
Unknown
Mass
Unknown
Launch date (UTC)
1999-05-10 (27 years ago)
Launch vehicle
Unknown
Launch site
Taiyaun Space Center, China (TSC)
Object type
Payload
Rocket body
Debris
Shape & HBR
Unknown shape, 0.1 m
Radar Cross Section
Medium (>0.1 m² and <1 m²)

Expand to show TLE details & history
Last TLE update: 1 week ago

TLE from 1 week ago
0 FENGYUN 1C DEB
1 30390U 99025ADD 26154.23302872  .00003546  00000-0  13275-2 0  9993
2 30390  98.8150 244.7963 0065343  21.9624  32.4112 14.31204995998500
Epoch: 2026-06-03T05:35Z
TLE epoch observation values (Epoch: 2026-06-03T05:35:33.681Z)
Latitude
53.93213°
Longitude
-103.01503°
Altitude
757.088 km
Speed
7.502 km/s
True Right ascension
15h 30m 16s
True Declination
53° 46' 06"
Sunlit
Object was in daylight at epoch
Visualization orbit readout
Latitude
Unknown
Longitude
Unknown
Altitude
Unknown
Speed
Unknown
Apparent Right ascension
Unknown
Apparent Declination
Unknown
Sunlit
N/A
Visualization observer readout
Local Sidereal Time
00:47:34
Azimuth
Unknown
Elevation
Unknown
Doppler factor
Unknown
Orbital elements
Apogee altitude
831.66 km
Perigee altitude
738.049 km
Semi-major axis
7,162.991 km
Eccentricity
0.00653
Inclination
98.815°
RAAN
244.7963°
Arg. of periapsis
21.9624°
True anomaly
32.81532°
Mean anomaly
32.4112°
Eccentric anomaly
32.61298°
Mean motion
3.58015 °/min
Orbital period
100.55 mins
BSTAR
0.0013275
Loading maneuver chart data...
Computing Atmospheric mass density...
Loading historical data...
Loading historical data...
Loading historical data...
Loading historical data...
Loading historical data...
Loading historical data...
Loading historical data...

Documentation

Showing up to 5 results
|